When you browse on this site, cookies collect data to enhance your experience and personalize the content and advertising you see.
Visit our Privacy Policy to learn more. By continuing to use the site, you agree to this use of cookies and data.
  • en France
  • Liste des pays
  • À 7 jours
  • Température de l'eau
  • Carte satellitaire
  • Carte météo
  • Widgets météo
  • user-avatar
    Se connecter

    Météo par heure à Wigston Magna

    Ce jour, 16 Juin, Dimanche

    Heure Température Précipitation Vent Pression Humidité
    00:00 +8°C° 0 mm 3 m/s 752 mmHg 90%
    01:00 +7°C° 0 mm 3 m/s 752 mmHg 91%
    02:00 +7°C° 0 mm 3 m/s 751 mmHg 92%
    03:00 +7°C° 0 mm 3 m/s 751 mmHg 92%
    04:00 +8°C° 0 mm 3 m/s 752 mmHg 93%
    05:00 +8°C° 0 mm 4 m/s 752 mmHg 93%
    06:00 +9°C° 0 mm 5 m/s 752 mmHg 94%
    07:00 +12°C° 0 mm 5 m/s 752 mmHg 89%
    08:00 +13°C° 0 mm 5 m/s 752 mmHg 85%
    09:00 +15°C° 0 mm 6 m/s 752 mmHg 80%
    10:00 +15°C° 0.4 mm 6 m/s 752 mmHg 82%
    11:00 +15°C° 0.4 mm 7 m/s 752 mmHg 85%
    12:00 +15°C° 0.4 mm 8 m/s 752 mmHg 87%
    13:00 +16°C° 0.3 mm 8 m/s 752 mmHg 84%
    14:00 +16°C° 0.3 mm 8 m/s 752 mmHg 81%
    15:00 +17°C° 0.3 mm 8 m/s 752 mmHg 78%
    16:00 +16°C° 0.1 mm 8 m/s 752 mmHg 81%
    17:00 +15°C° 0.1 mm 7 m/s 752 mmHg 85%
    18:00 +14°C° 0.1 mm 7 m/s 752 mmHg 88%
    19:00 +14°C° 0 mm 6 m/s 753 mmHg 89%
    20:00 +13°C° 0 mm 5 m/s 753 mmHg 90%
    21:00 +13°C° 0 mm 5 m/s 753 mmHg 91%
    22:00 +12°C° 0 mm 5 m/s 754 mmHg 92%
    23:00 +10°C° 0 mm 5 m/s 754 mmHg 92%

    Demain, 17 Juin, Lundi

    Heure Température Précipitation Vent Pression Humidité
    00:00 +10°C° 0 mm 5 m/s 754 mmHg 93%
    01:00 +9°C° 0 mm 5 m/s 753 mmHg 94%
    02:00 +9°C° 0 mm 5 m/s 753 mmHg 94%
    03:00 +9°C° 0 mm 5 m/s 753 mmHg 95%
    04:00 +9°C° 0 mm 5 m/s 753 mmHg 94%
    05:00 +10°C° 0 mm 6 m/s 753 mmHg 92%
    06:00 +11°C° 0 mm 6 m/s 753 mmHg 90%
    07:00 +12°C° 0 mm 7 m/s 753 mmHg 87%
    08:00 +14°C° 0 mm 7 m/s 753 mmHg 83%
    09:00 +16°C° 0 mm 7 m/s 754 mmHg 80%
    10:00 +16°C° 0.1 mm 7 m/s 754 mmHg 79%
    11:00 +17°C° 0.1 mm 7 m/s 754 mmHg 79%
    12:00 +18°C° 0.1 mm 7 m/s 753 mmHg 78%
    13:00 +17°C° 0.5 mm 6 m/s 753 mmHg 81%
    14:00 +17°C° 0.5 mm 6 m/s 753 mmHg 83%
    15:00 +17°C° 0.5 mm 5 m/s 753 mmHg 86%
    16:00 +16°C° 0.3 mm 5 m/s 753 mmHg 87%
    17:00 +16°C° 0.3 mm 5 m/s 753 mmHg 87%
    18:00 +17°C° 0.3 mm 4 m/s 752 mmHg 88%
    19:00 +15°C° 0 mm 4 m/s 753 mmHg 89%
    20:00 +14°C° 0 mm 4 m/s 753 mmHg 91%
    21:00 +13°C° 0 mm 4 m/s 753 mmHg 93%
    22:00 +12°C° 0 mm 4 m/s 753 mmHg 94%
    23:00 +12°C° 0 mm 3 m/s 753 mmHg 94%

    Après-demain, 18 Juin, Mardi

    Heure Température Précipitation Vent Pression Humidité
    00:00 +11°C° 0 mm 3 m/s 753 mmHg 95%
    01:00 +11°C° 0 mm 3 m/s 753 mmHg 95%
    02:00 +10°C° 0 mm 3 m/s 753 mmHg 95%
    03:00 +9°C° 0 mm 2 m/s 753 mmHg 95%
    04:00 +10°C° 0 mm 2 m/s 753 mmHg 93%
    05:00 +12°C° 0 mm 2 m/s 753 mmHg 92%
    06:00 +12°C° 0 mm 2 m/s 753 mmHg 90%
    07:00 +14°C° 0 mm 2 m/s 753 mmHg 86%
    08:00 +14°C° 0 mm 3 m/s 753 mmHg 82%
    09:00 +16°C° 0 mm 3 m/s 753 mmHg 77%
    10:00 +17°C° 0.1 mm 3 m/s 753 mmHg 76%
    11:00 +18°C° 0.1 mm 3 m/s 753 mmHg 75%
    12:00 +19°C° 0.1 mm 3 m/s 753 mmHg 75%
    13:00 +19°C° 0.1 mm 2 m/s 752 mmHg 74%
    14:00 +19°C° 0.1 mm 2 m/s 752 mmHg 74%
    15:00 +19°C° 0.1 mm 2 m/s 752 mmHg 73%
    16:00 +19°C° 0.1 mm 1 m/s 751 mmHg 78%
    17:00 +19°C° 0.1 mm 1 m/s 751 mmHg 83%
    18:00 +18°C° 0.1 mm 1 m/s 751 mmHg 87%
    19:00 +16°C° 0.8 mm 1 m/s 751 mmHg 90%
    20:00 +15°C° 0.8 mm 1 m/s 751 mmHg 93%
    21:00 +15°C° 0.8 mm 1 m/s 751 mmHg 96%
    22:00 +14°C° 1.9 mm 1 m/s 751 mmHg 97%
    23:00 +14°C° 1.9 mm 2 m/s 750 mmHg 97%

    19 Juin, Mercredi

    Heure Température Précipitation Vent Pression Humidité
    00:00 +14°C° 1.9 mm 2 m/s 750 mmHg 98%
    01:00 +14°C° 0.3 mm 2 m/s 750 mmHg 97%
    02:00 +13°C° 0.3 mm 2 m/s 749 mmHg 97%
    03:00 +13°C° 0.3 mm 2 m/s 749 mmHg 96%
    04:00 +12°C° 0 mm 3 m/s 749 mmHg 96%
    05:00 +13°C° 0 mm 3 m/s 748 mmHg 95%
    06:00 +13°C° 0 mm 3 m/s 748 mmHg 95%
    07:00 +14°C° 0 mm 3 m/s 748 mmHg 93%
    08:00 +16°C° 0 mm 3 m/s 748 mmHg 90%
    09:00 +17°C° 0 mm 3 m/s 748 mmHg 88%
    10:00 +17°C° 0.3 mm 3 m/s 748 mmHg 90%
    11:00 +17°C° 0.3 mm 2 m/s 747 mmHg 92%
    12:00 +17°C° 0.3 mm 2 m/s 747 mmHg 94%
    13:00 +16°C° 0.5 mm 2 m/s 747 mmHg 94%
    14:00 +16°C° 0.5 mm 2 m/s 747 mmHg 94%
    15:00 +16°C° 0.5 mm 2 m/s 746 mmHg 94%
    16:00 +16°C° 0.9 mm 3 m/s 746 mmHg 95%
    17:00 +14°C° 0.9 mm 3 m/s 746 mmHg 96%
    18:00 +14°C° 0.9 mm 4 m/s 746 mmHg 96%
    19:00 +13°C° 0.2 mm 4 m/s 747 mmHg 96%
    20:00 +13°C° 0.2 mm 4 m/s 747 mmHg 96%
    21:00 +12°C° 0.2 mm 4 m/s 747 mmHg 95%
    22:00 +12°C° 0 mm 4 m/s 747 mmHg 95%
    23:00 +11°C° 0 mm 4 m/s 748 mmHg 94%

    20 Juin, Jeudi

    Heure Température Précipitation Vent Pression Humidité
    00:00 +10°C° 0 mm 4 m/s 748 mmHg 93%
    01:00 +10°C° 0 mm 4 m/s 748 mmHg 94%
    02:00 +9°C° 0 mm 3 m/s 748 mmHg 94%
    03:00 +8°C° 0 mm 3 m/s 749 mmHg 95%
    04:00 +9°C° 0 mm 3 m/s 749 mmHg 94%
    05:00 +10°C° 0 mm 3 m/s 749 mmHg 93%
    06:00 +10°C° 0 mm 3 m/s 750 mmHg 92%
    07:00 +12°C° 0 mm 3 m/s 750 mmHg 87%
    08:00 +13°C° 0 mm 4 m/s 750 mmHg 82%
    09:00 +15°C° 0 mm 4 m/s 751 mmHg 77%
    10:00 +17°C° 0 mm 4 m/s 751 mmHg 74%
    11:00 +17°C° 0 mm 4 m/s 751 mmHg 70%
    12:00 +18°C° 0 mm 4 m/s 751 mmHg 67%
    13:00 +18°C° 0.2 mm 4 m/s 751 mmHg 68%
    14:00 +18°C° 0.2 mm 3 m/s 751 mmHg 69%
    15:00 +18°C° 0.2 mm 3 m/s 751 mmHg 70%
    16:00 +17°C° 0.3 mm 3 m/s 751 mmHg 74%
    17:00 +17°C° 0.3 mm 3 m/s 751 mmHg 77%
    18:00 +16°C° 0.3 mm 3 m/s 751 mmHg 81%
    19:00 +14°C° 0 mm 3 m/s 751 mmHg 83%
    20:00 +12°C° 0 mm 3 m/s 752 mmHg 85%
    21:00 +12°C° 0 mm 2 m/s 752 mmHg 87%
    22:00 +10°C° 0 mm 2 m/s 752 mmHg 88%
    23:00 +10°C° 0 mm 2 m/s 752 mmHg 90%

    21 Juin, Vendredi

    Heure Température Précipitation Vent Pression Humidité
    00:00 +9°C° 0 mm 3 m/s 752 mmHg 91%
    01:00 +9°C° 0 mm 3 m/s 752 mmHg 92%
    02:00 +8°C° 0 mm 3 m/s 752 mmHg 93%
    03:00 +8°C° 0 mm 3 m/s 752 mmHg 94%
    04:00 +9°C° 0 mm 3 m/s 752 mmHg 92%
    05:00 +9°C° 0 mm 3 m/s 753 mmHg 91%
    06:00 +10°C° 0 mm 3 m/s 753 mmHg 89%
    07:00 +12°C° 0.1 mm 3 m/s 753 mmHg 85%
    08:00 +13°C° 0.1 mm 4 m/s 753 mmHg 81%
    09:00 +14°C° 0.1 mm 4 m/s 753 mmHg 77%
    10:00 +15°C° 0.2 mm 4 m/s 753 mmHg 74%
    11:00 +17°C° 0.2 mm 4 m/s 753 mmHg 72%
    12:00 +18°C° 0.2 mm 4 m/s 753 mmHg 69%
    13:00 +18°C° 0.4 mm 4 m/s 753 mmHg 70%
    14:00 +18°C° 0.4 mm 4 m/s 753 mmHg 71%
    15:00 +18°C° 0.4 mm 4 m/s 754 mmHg 72%
    16:00 +17°C° 0.4 mm 4 m/s 754 mmHg 75%
    17:00 +17°C° 0.4 mm 3 m/s 754 mmHg 77%
    18:00 +17°C° 0.4 mm 3 m/s 754 mmHg 80%
    19:00 +14°C° 0 mm 3 m/s 754 mmHg 82%
    20:00 +12°C° 0 mm 3 m/s 755 mmHg 84%
    21:00 +10°C° 0 mm 3 m/s 755 mmHg 86%
    22:00 +9°C° 0 mm 3 m/s 756 mmHg 87%
    23:00 +9°C° 0 mm 3 m/s 756 mmHg 87%
    Voir plus